Weather History for Fairfield, CA

Change the Weather History Date:

Wednesday, October 3, 2012

  Actual Average Record
Temperature  
Mean Temperature 74 °F -  
Max Temperature 92 °F 79 °F 94 °F (2014)
Min Temperature 56 °F 52 °F 46 °F (1998)
Cooling Degree Days 9    
Growing Degree Days 24 (Base 50)    
Moisture  
Dew Point 49 °F    
Average Humidity 49    
Maximum Humidity 81    
Minimum Humidity 18    
Precipitation  
Precipitation 0.01 in - - ()
Sea Level Pressure  
Sea Level Pressure 29.84 in    
Wind  
Wind Speed 7 mph (WSW)    
Max Wind Speed 26 mph    
Max Gust Speed 36 mph    
Visibility 10 miles    
Events      
Averages and records for this station are not official NWS values.
T = Trace of Precipitation, MM = Missing Value Source: NWS Daily Summary

Daily Weather History Graph

Daily Weather History Graph

Search for Another Location

Airport:

Trip Planner

Search our weather history database for the weather conditions in past years. The results will help you decide how hot, cold, wet, or windy it might be!

Date:

Astronomy

Oct. 03, 2012 Rise Set
Actual Time 7:05 AM PDT 6:46 PM PDT
Civil Twilight 6:39 AM PDT 7:13 PM PDT
Nautical Twilight 6:08 AM PDT 7:43 PM PDT
Astronomical Twilight 5:38 AM PDT 8:14 PM PDT
Moon 8:46 PM PDT (10/3) 10:30 AM PDT (10/3)
Length of Visible Light 12h 33m
Length of Day
11h 40m
Waning Gibbous, 88% of the Moon is Illuminated
Oct 3
Waning Gibbous
Oct 8
Last Quarter
Oct 15
New
Oct 21
First Quarter
Oct 29
Full

Hourly Weather History & Observations

Time (PDT) Temp. Dew Point Humidity Pressure Visibility Wind Dir Wind Speed Gust Speed Precip Events Conditions
12:55 AM 63.9 °F 47.7 °F 56% 29.78 in 10.0 mi Calm Calm - N/A   Clear
1:55 AM 58.8 °F 46.6 °F 64% 29.80 in 10.0 mi South 3.5 mph - N/A   Clear
2:55 AM 62.2 °F 45.7 °F 55% 29.80 in 10.0 mi Calm Calm - N/A   Clear
3:55 AM 63.0 °F 45.5 °F 53% 29.80 in 10.0 mi West 5.8 mph - N/A   Clear
4:55 AM 62.4 °F 46.2 °F 55% 29.80 in 10.0 mi WSW 5.8 mph - N/A   Clear
5:55 AM 59.2 °F 47.3 °F 65% 29.82 in 10.0 mi NE 6.9 mph - N/A   Clear
6:55 AM 56.8 °F 46.6 °F 69% 29.83 in 10.0 mi Calm Calm - N/A   Clear
7:55 AM 59.9 °F 47.7 °F 64% 29.85 in 10.0 mi Calm Calm - N/A   Clear
8:55 AM 68.7 °F 48.2 °F 48% 29.86 in 10.0 mi Calm Calm - N/A   Clear
9:55 AM 77.4 °F 47.1 °F 34% 29.87 in 10.0 mi West 4.6 mph - N/A   Clear
10:55 AM 84.0 °F 45.0 °F 25% 29.87 in 10.0 mi West 6.9 mph - N/A   Clear
11:55 AM 87.8 °F 44.8 °F 22% 29.87 in 10.0 mi SW 4.6 mph - N/A   Partly Cloudy
12:55 PM 91.2 °F 42.6 °F 18% 29.85 in 10.0 mi West 8.1 mph - N/A   Clear
1:55 PM 92.5 °F 42.8 °F 18% 29.83 in 10.0 mi West 12.7 mph - N/A   Clear
2:55 PM 92.3 °F 45.7 °F 20% 29.82 in 10.0 mi West 17.3 mph - N/A   Clear
3:55 PM 90.9 °F 48.2 °F 23% 29.81 in 10.0 mi WSW 19.6 mph - N/A   Clear
4:55 PM 87.3 °F 47.8 °F 25% 29.82 in 10.0 mi WSW 21.9 mph - N/A   Clear
5:55 PM 80.6 °F 51.6 °F 36% 29.82 in 10.0 mi WSW 18.4 mph - N/A   Clear
6:55 PM 72.0 °F 53.4 °F 52% 29.83 in 10.0 mi WSW 18.4 mph 25.3 mph N/A   Clear
7:55 PM 67.6 °F 54.9 °F 64% 29.83 in 10.0 mi WSW 21.9 mph - N/A   Clear
8:55 PM 64.9 °F 54.7 °F 69% 29.85 in 10.0 mi WSW 20.7 mph - N/A   Clear
9:55 PM 62.8 °F 55.6 °F 77% 29.87 in 10.0 mi WSW 23.0 mph - N/A   Clear
10:55 PM 61.2 °F 55.4 °F 81% 29.89 in 10.0 mi WSW 26.5 mph 33.4 mph N/A   Clear
11:55 PM 60.3 °F 54.5 °F 81% 29.91 in 10.0 mi WSW 26.5 mph 35.7 mph 0.01 in   Clear